YZ-2 R/B, 41840

Orbit data source: Space-Track

YZ-2 R/B, 41840 is space debris in GEO originally from a launch on Thu, 03 Nov 2016 UTC launched from the Wenchang Satellite Launch Center (WSC). Debris objects in space refer to the collection of defunct objects orbiting the Earth. Examples of debris include non-operational satellites, rocket bodies, and fragments generated from explosions, collisions, or faulty payload assembly.

Loading next visibility...
Identifier
41840, 2016-065C
Orbit
GEO
Country
Flag of CNCN / PRC
Related business
Manufacturer
CALT
Mission
Spacecraft
Bus & Motor
YZ-2, Unknown motor
Mass
~2,000 kg wet, ~2,000 kg dry
Launch date (UTC)
2016-11-03 (9 years ago)
Launch vehicle
Unknown
Launch site
Wenchang Satellite Launch Center (WSC)
Object type
Payload
Rocket body
Debris
Shape & HBR
Cyl, 2.0 m
Radar Cross Section
17.609 m², Large (>1 m²)

Expand to show TLE details & history
Last TLE update: 1 day ago

TLE from 1 day ago
0 YZ-2 R/B
1 41840U 16065C   25301.29308840 -.00000100  00000-0  00000-0 0  9992
2 41840   8.7517  69.0354 0470313 225.9081 130.1179  0.93473565 30680
Epoch: 2025-10-28T07:02Z
TLE epoch observation values (Epoch: 2025-10-28T07:02:02.837Z)
Latitude
0.00001°
Longitude
-73.41891°
Altitude
39,195.392 km
Speed
2.911 km/s
True Right ascension
04h 35m 54s
True Declination
0° 00' 00"
Sunlit
Object was in daylight at epoch
Visualization orbit readout
Latitude
Unknown
Longitude
Unknown
Altitude
Unknown
Speed
Unknown
Apparent Right ascension
Unknown
Apparent Declination
Unknown
Sunlit
N/A
Visualization observer readout
Local Sidereal Time
08:35:09
Azimuth
Unknown
Elevation
Unknown
Doppler factor
Unknown
Orbital elements
Apogee altitude
39,886.098 km
Perigee altitude
35,729.838 km
Semi-major axis
44,186.105 km
Eccentricity
0.04703
Inclination
8.7517°
RAAN
69.0354°
Arg. of periapsis
225.9081°
True anomaly
134.08548°
Mean anomaly
130.1179°
Eccentric anomaly
132.11677°
Mean motion
0.23368 °/min
Orbital period
1,540.59 mins
BSTAR
0
Loading maneuver chart data...
Computing Atmospheric mass density...
Loading historical data...
Loading historical data...
Loading historical data...
Loading historical data...
Loading historical data...
Loading historical data...
Loading historical data...
Other satellites on launch #65 in the year 2016 (2016-11-03 UTC)

Documentation

Showing up to 5 results
|